Powrót do katalogu

SL-16 R/B

AktywnyLEO
NORAD 17590·ROCKET BODY·🇷🇺 Russia

Wystrzelony Mar 18, 1987 z Baikonur Cosmodrome

Loading…

Następne Przeloty (najbliższe 24 godziny)

TLE

ŚwieżeSource: Space-Track

Epoka: Sep 14, 2026, 22:16 UTC

1 17590U 87027B   26257.92829574 -.00000002  00000-0  22552-4 0  9997
2 17590  71.0005 237.7147 0006005 214.9649 145.1081 14.17183121 42155

Śledź SL-16 R/B w czasie rzeczywistym z AllMySat

Download on the App Store